Location: S�tio Afonso Gruber
(26.1760°S, 49.5250°W)
Time: 07:13:39
(UTC+00:00)

ISS - Visible Passes

Search period start: 04 March 2021 00:00
Search period end: 14 March 2021 00:00
Orbit: 417 x 422 km, 51.6° (Epoch: 04 March)

Date Brightness Start Highest point End Pass type
(mag) Time Alt. Az. Time Alt. Az. Time Alt. Az.
05 Mar -2.2 23:28:16 10° SW 23:30:18 32° SSW 23:30:18 32° SSW visible
06 Mar -2.6 22:41:05 10° SSW 22:44:09 30° SE 22:45:04 26° ESE visible
07 Mar -1.8 23:30:22 10° WSW 23:32:57 27° WNW 23:32:57 27° WNW visible
08 Mar -3.3 22:42:34 10° SW 22:45:57 60° NW 22:47:59 21° NNE visible
10 Mar -0.9 22:45:36 10° W 22:47:30 14° NW 22:49:22 10° NNW visible
11 Mar -1.6 21:57:08 10° WSW 22:00:07 28° NW 22:03:03 10° N visible
